Station LKWF1 - 8722670 - Lake Worth Pier, FL Image indicating link to RSS feed of recent meteorological observations for station LKWF1


Conditions at LKWF1 as of
(10:18 am EDT)
1418 GMT on 04/16/2024:
     

Click on the graph icon in the table below to see a time series plot of the last five days of that observation.

5-day plot - Wind Direction Wind Direction (WDIR): E ( 80 deg true )
5-day plot - Wind Speed Wind Speed (WSPD): 12.0 kts
5-day plot - Wind Gust Wind Gust (GST): 14.0 kts
5-day plot - Atmospheric Pressure Atmospheric Pressure (PRES):30.16 in
5-day plot - Air Temperature Air Temperature (ATMP): 74.3 °F
5-day plot - Water Temperature Water Temperature (WTMP): 76.6 °F
5-day plot - Wind Speed at 10 Meters Wind Speed at 10 meters (WSPD10M): 11.7 kts
5-day plot - Wind Speed at 20 Meters Wind Speed at 20 meters (WSPD20M): 13.6 kts
5-day plot -  Wind Speed, Wind Gust and Atmospheric Pressure Combined plot of Wind Speed, Gust, and Air Pressure
NOS Water Level Observation Network Water Level
Previous observations
TIME
(EDT)
5-day plot - Wind Direction
WDIR
 
5-day plot - Wind Speed
WSPD
kts
5-day plot - Wind Gust
GST
kts
5-day plot - Wave Height
WVHT
ft
5-day plot - Dominant Wave Period
DPD
sec
5-day plot - Average Wave Period
APD
sec
5-day plot - Mean Wave Direction
MWD
 
5-day plot - Atmospheric Pressure
PRES
in
5-day plot - Pressure Tendency
PTDY
in
5-day plot - Air Temperature
ATMP
°F
5-day plot - Water Temperature
WTMP
°F
5-day plot - Dew Point
DEWP
°F
5-day plot - Salinity
SAL
psu
5-day plot - Visibility
VIS
nmi
5-day plot - Tide (above MLLW)
TIDE
ft
2024-04-16 10:12 am E 12.0 14.0----30.16- 74.7 76.5----
2024-04-16 10:06 am E 11.1 15.0----30.16- 74.3 76.5----
2024-04-16 10:00 am E 11.1 15.9----30.15+0.06 75.0 76.5----
2024-04-16 09:54 am E 12.0 13.0----30.15- 74.5 76.6----
2024-04-16 09:48 am E 11.1 15.0----30.15- 74.5 76.6----
2024-04-16 09:42 amENE 9.9 15.0----30.15- 74.3 76.8----
2024-04-16 09:36 am E 11.1 14.0----30.15- 74.8 77.0----
2024-04-16 09:30 am E 12.0 15.0----30.14- 74.5 77.0----
2024-04-16 09:24 am E 11.1 14.0----30.14- 74.7 76.8----
2024-04-16 09:18 am E 11.1 15.0----30.14- 74.3 76.8----
2024-04-16 09:12 am E 8.9 13.0----30.14- 74.3 76.8----
2024-04-16 09:06 am E 12.0 14.0----30.14- 74.7 76.8----
2024-04-16 09:00 amESE 12.0 13.0----30.14+0.06 74.7 76.8----
2024-04-16 08:54 am E 9.9 13.0----30.14- 74.8 76.8----
2024-04-16 08:48 am E 8.9 12.0----30.14- 74.5 76.8----
2024-04-16 08:42 am E 9.9 14.0----30.14- 74.3 76.8----
2024-04-16 08:36 am E 9.9 13.0----30.13- 74.7 76.8----
2024-04-16 08:30 am E 9.9 12.0----30.13- 74.1 76.8----
2024-04-16 08:24 am E 11.1 15.0----30.13- 74.1 76.8----
2024-04-16 08:18 am E 14.0 15.9----30.13- 73.9 76.8----
2024-04-16 08:12 am E 12.0 14.0----30.13- 74.5 76.8----
2024-04-16 08:06 am E 12.0 14.0----30.12- 74.1 76.8----
2024-04-16 08:00 am E 13.0 15.9----30.12+0.05 73.9 76.8----
2024-04-16 07:54 am E 12.0 14.0----30.12- 74.1 76.8----
2024-04-16 07:48 am E 9.9 15.0----30.11- 74.3 77.0----
2024-04-16 07:42 am E 11.1 15.0----30.11- 74.3 77.0----
2024-04-16 07:36 am E 13.0 15.9----30.11- 74.3 77.0----
2024-04-16 07:30 am E 12.0 15.0----30.11- 74.1 77.0----
2024-04-16 07:24 am E 12.0 15.0----30.11- 73.9 77.0----
2024-04-16 07:18 am E 12.0 15.0----30.10- 73.8 77.0----
2024-04-16 07:12 am E 12.0 13.0----30.10- 73.8 77.0----
2024-04-16 07:06 am E 13.0 15.0----30.10- 73.6 77.0----
2024-04-16 07:00 am E 11.1 14.0----30.10+0.03 73.8 77.0----
2024-04-16 06:54 am E 12.0 15.9----30.10- 73.8 77.0----
2024-04-16 06:48 am E 12.0 15.9----30.10- 73.8 77.0----
2024-04-16 06:42 am E 11.1 12.0----30.10- 73.8 77.0----
2024-04-16 06:36 am E 8.0 11.1----30.10- 73.6 77.0----
2024-04-16 06:30 amESE 11.1 13.0----30.09- 73.8 77.0----
2024-04-16 06:24 am E 11.1 14.0----30.09- 73.8 77.0----
2024-04-16 06:18 am E 11.1 12.0----30.09- 73.8 77.0----
2024-04-16 06:12 am E 9.9 13.0----30.09- 73.8 77.0----
2024-04-16 06:06 am E 12.0 14.0----30.08- 73.8 77.0----
2024-04-16 06:00 am E 12.0 13.0----30.08+0.01 73.8 77.0----
2024-04-16 05:54 amESE 11.1 13.0----30.08- 73.8 77.0----
2024-04-16 05:48 am E 11.1 15.0----30.08- 73.9 77.2----
2024-04-16 05:42 am E 8.0 12.0----30.08- 73.9 77.2----
2024-04-16 05:36 amESE 9.9 12.0----30.08- 73.9 77.2----
2024-04-16 05:30 am E 8.9 13.0----30.08- 73.9 77.2----
2024-04-16 05:24 am E 8.9 12.0----30.08- 73.9 77.2----
2024-04-16 05:18 am E 6.0 11.1----30.08- 74.5 77.2----
2024-04-16 05:12 amESE 12.0 13.0----30.07- 74.1 77.2----
2024-04-16 05:06 am E 11.1 14.0----30.07- 74.3 77.2----
2024-04-16 05:00 am E 8.9 13.0----30.07-0.02 74.3 77.2----
2024-04-16 04:54 am E 13.0 14.0----30.07- 74.3 77.2----
2024-04-16 04:48 am E 11.1 14.0----30.07- 74.3 77.2----
2024-04-16 04:42 am E 11.1 14.0----30.07- 74.3 77.2----
2024-04-16 04:36 am E 9.9 14.0----30.07- 74.1 77.2----
2024-04-16 04:30 am E 12.0 14.0----30.07- 74.1 77.2----
2024-04-16 04:24 am E 12.0 14.0----30.07- 73.8 77.2----
2024-04-16 04:18 am E 11.1 13.0----30.07- 73.9 77.2----
2024-04-16 04:12 am E 12.0 13.0----30.07- 73.9 77.2----
2024-04-16 04:06 am E 9.9 14.0----30.07- 74.1 77.2----
2024-04-16 04:00 am E 12.0 14.0----30.07-0.04 73.9 77.2----
2024-04-16 03:54 am E 11.1 13.0----30.07- 73.9 77.4----
2024-04-16 03:48 am E 11.1 14.0----30.08- 73.9 77.4----
2024-04-16 03:42 am E 9.9 12.0----30.08- 73.9 77.4----
2024-04-16 03:36 am E 9.9 12.0----30.08- 73.9 77.4----
2024-04-16 03:30 am E 11.1 14.0----30.08- 73.9 77.4----
2024-04-16 03:24 am E 8.9 13.0----30.08- 73.8 77.4----
2024-04-16 03:18 amESE 8.0 12.0----30.08- 73.9 77.4----
2024-04-16 03:12 am E 9.9 13.0----30.07- 73.8 77.4----
2024-04-16 03:06 amESE 12.0 14.0----30.07- 73.8 77.4----
2024-04-16 03:00 amESE 11.1 15.0----30.07-0.05 73.8 77.4----
2024-04-16 02:54 amESE 12.0 14.0----30.07- 73.8 77.4----
2024-04-16 02:48 am E 8.9 13.0----30.08- 73.8 77.4----
2024-04-16 02:42 amESE 9.9 15.0----30.08- 73.9 77.4----
2024-04-16 02:36 amESE 8.9 12.0----30.08- 74.1 77.4----
2024-04-16 02:30 amESE 8.9 12.0----30.09- 73.9 77.4----
2024-04-16 02:24 amESE 8.9 9.9----30.09- 73.9 77.4----
2024-04-16 02:18 amESE 8.9 11.1----30.09- 73.9 77.4----
2024-04-16 02:12 amESE 8.9 12.0----30.09- 73.8 77.4----
2024-04-16 02:06 amESE 9.9 13.0----30.10- 73.8 77.4----
2024-04-16 02:00 am E 8.9 13.0----30.10-0.03 73.8 77.4----
2024-04-16 01:54 am E 8.0 12.0----30.10- 73.9 77.4----
2024-04-16 01:48 am E 9.9 12.0----30.10- 73.9 77.5----
2024-04-16 01:42 amESE 8.9 12.0----30.10- 73.9 77.5----
2024-04-16 01:36 amESE 11.1 13.0----30.10- 73.9 77.5----
2024-04-16 01:30 amESE 11.1 14.0----30.10- 73.8 77.5----
2024-04-16 01:24 amESE 11.1 13.0----30.10- 73.8 77.5----
2024-04-16 01:18 amESE 13.0 14.0----30.10- 73.6 77.5----
2024-04-16 01:12 amESE 11.1 14.0----30.10- 73.9 77.5----
2024-04-16 01:06 amESE 12.0 15.0----30.10- 73.8 77.5----
2024-04-16 01:00 am E 13.0 14.0----30.11-0.01 73.9 77.5----
2024-04-16 12:54 amESE 12.0 15.9----30.11- 73.9 77.5----
2024-04-16 12:48 amESE 14.0 15.9----30.10- 73.8 77.5----
2024-04-16 12:42 amESE 12.0 14.0----30.11- 73.8 77.5----
2024-04-16 12:36 amESE 11.1 14.0----30.11- 73.9 77.5----
2024-04-16 12:30 am SE 13.0 15.9----30.11- 73.9 77.5----
2024-04-16 12:24 amESE 12.0 15.0----30.11- 73.9 77.5----
2024-04-16 12:18 amESE 12.0 15.0----30.11- 73.9 77.5----
2024-04-16 12:12 amESE 12.0 14.0----30.11- 73.8 77.5----
2024-04-16 12:06 amESE 11.1 13.0----30.12- 73.9 77.5----
2024-04-16 12:00 amESE 11.1 13.0----30.12+0.00 73.9 77.5----
2024-04-15 11:54 pmESE 9.9 14.0----30.12- 73.8 77.7----
2024-04-15 11:48 pmESE 12.0 14.0----30.12- 73.9 77.7----
2024-04-15 11:42 pm E 9.9 12.0----30.12- 73.9 77.7----
2024-04-15 11:36 pmESE 9.9 15.0----30.12- 73.9 77.7----
2024-04-15 11:30 pm E 9.9 12.0----30.12- 73.9 77.7----
2024-04-15 11:24 pmESE 11.1 14.0----30.12- 73.6 77.7----
2024-04-15 11:18 pmESE 11.1 14.0----30.12- 73.6 77.9----
2024-04-15 11:12 pm E 9.9 13.0----30.13- 73.6 77.7----
2024-04-15 11:06 pm E 11.1 13.0----30.13- 73.8 77.7----
2024-04-15 11:00 pmESE 12.0 13.0----30.13+0.03 73.8 77.7----
2024-04-15 10:54 pmESE 12.0 14.0----30.13- 73.6 77.7----
2024-04-15 10:48 pmESE 9.9 13.0----30.13- 73.8 77.7----
2024-04-15 10:42 pm E 11.1 13.0----30.13- 73.9 77.7----
2024-04-15 10:36 pm E 12.0 15.0----30.13- 73.8 77.7----
2024-04-15 10:30 pm E 11.1 14.0----30.13-- 77.9----
2024-04-15 10:24 pm E 11.1 13.0----30.13-- 77.9----
2024-04-15 10:18 pm E 9.9 14.0----30.12- 73.9 77.9----
2024-04-15 10:12 pm E 12.0 15.0----30.12- 73.8 77.9----
2024-04-15 10:06 pm E 9.9 14.0----30.12- 73.9 77.7----
2024-04-15 10:00 pm E 12.0 13.0----30.12+0.03 73.8 77.9----
2024-04-15 09:54 pm E 12.0 15.0----30.12- 73.8 77.9----
2024-04-15 09:48 pm E 11.1 14.0----30.12- 73.9 77.9----
2024-04-15 09:42 pm E 11.1 14.0----30.11- 73.8 77.9----
2024-04-15 09:36 pmESE 12.0 14.0----30.11- 73.9 77.9----
2024-04-15 09:30 pm E 12.0 15.0----30.11- 73.8 77.9----
2024-04-15 09:24 pm E 13.0 15.0----30.11- 73.8 77.9----
2024-04-15 09:18 pm E 11.1 14.0----30.11- 73.8 77.9----
2024-04-15 09:12 pm E 9.9 13.0----30.11- 73.9 77.9----
2024-04-15 09:06 pmENE 8.0 12.0----30.11- 73.8 77.9----
2024-04-15 09:00 pm E 9.9 12.0----30.11+0.02- 78.1----
2024-04-15 08:54 pm E 6.0 11.1----30.11-- 78.1----
2024-04-15 08:48 pm E 9.9 11.1----30.11- 73.8 78.1----
2024-04-15 08:42 pmENE 8.9 14.0----30.11- 73.6 78.1----
2024-04-15 08:36 pm E 9.9 13.0----30.11- 73.6 78.1----
2024-04-15 08:30 pmENE 11.1 13.0----30.11- 73.4 78.1----
2024-04-15 08:24 pm E 12.0 14.0----30.11- 73.4 78.1----
2024-04-15 08:18 pmENE 9.9 14.0----30.11-- 78.1----
2024-04-15 08:12 pmENE 11.1 14.0----30.10-- 78.1----
2024-04-15 08:06 pmENE 8.9 15.0----30.10-- 78.1----
2024-04-15 08:00 pmENE 9.9 12.0----30.10+0.00 73.4 78.1----
2024-04-15 07:54 pm E 9.9 13.0----30.10- 73.4 78.1----
2024-04-15 07:48 pm E 11.1 13.0----30.10- 73.4 78.1----
2024-04-15 07:42 pm E 11.1 12.0----30.10- 73.6 78.1----
2024-04-15 07:36 pmENE 8.9 13.0----30.10- 73.4 78.3----
2024-04-15 07:30 pm E 8.9 13.0----30.10- 73.8 78.3----
2024-04-15 07:24 pmENE 8.9 13.0----30.10- 73.6 78.3----
2024-04-15 07:18 pmENE 9.9 14.0----30.10- 73.8 78.3----
2024-04-15 07:00 pmENE 11.1 13.0----30.09+0.00 73.6 78.3----
2024-04-15 06:54 pmENE 9.9 13.0----30.09- 73.6 78.3----
2024-04-15 06:48 pm NE 9.9 14.0----30.09- 73.6 78.4----
2024-04-15 06:42 pmENE 9.9 11.1----30.09- 73.8 78.4----
2024-04-15 06:36 pmENE 8.9 13.0----30.09- 73.6 78.4----
2024-04-15 06:30 pmENE 9.9 12.0----30.09-- 78.4----
2024-04-15 06:24 pm NE 9.9 13.0----30.09-- 78.3----
2024-04-15 06:18 pm NE 9.9 13.0----30.09- 73.6 78.3----
2024-04-15 06:12 pm NE 8.9 11.1----30.09- 73.8 78.3----
2024-04-15 06:06 pmENE 8.9 12.0----30.10- 73.8 78.3----
2024-04-15 06:00 pmENE 7.0 8.9----30.10-0.01 73.9 78.3----
2024-04-15 05:54 pmENE 8.0 9.9----30.10- 73.8 78.4----
2024-04-15 05:48 pmENE 9.9 12.0----30.10- 73.6 78.4----
2024-04-15 05:42 pmENE 9.9 12.0----30.10- 73.8 78.4----
2024-04-15 05:36 pmENE 9.9 11.1----30.10- 73.6 78.4----
2024-04-15 05:30 pm NE 6.0 8.9----30.10- 73.8 78.4----
2024-04-15 05:24 pmENE 8.0 13.0----30.10- 73.8 78.4----
2024-04-15 05:18 pmENE 9.9 13.0------ 73.8 78.4----
2024-04-15 05:12 pm NE 7.0 12.0------ 73.6 78.4----
2024-04-15 05:06 pmENE 7.0 9.9------ 73.8 78.4----
2024-04-15 05:00 pmENE 9.9 12.0----30.10-0.02 73.4 78.4----
2024-04-15 04:54 pmENE 8.9 11.1----30.10- 73.6 78.4----
2024-04-15 04:48 pm E 8.0 13.0----30.10- 73.6 78.3----
2024-04-15 04:42 pmENE 9.9 11.1----30.09- 73.4 78.3----
2024-04-15 04:36 pmENE 7.0 11.1----30.09- 73.6 78.3----
2024-04-15 04:30 pmENE 11.1 12.0----30.09- 73.4 78.3----
2024-04-15 04:24 pm NE 5.1 8.9----30.10- 73.8 78.3----
2024-04-15 04:18 pmENE 7.0 12.0----30.10- 73.4 78.3----
2024-04-15 04:12 pmENE 8.0 11.1----30.09- 73.6 78.3----
2024-04-15 04:06 pm E 6.0 9.9----30.10- 73.9 78.3----
2024-04-15 04:00 pm E 8.0 12.0----30.10-0.04 73.4 78.3----
2024-04-15 03:54 pmENE 8.0 9.9----30.10- 73.9 78.3----
2024-04-15 03:48 pm E 8.0 12.0----30.10- 73.8 78.3----
2024-04-15 03:42 pmENE 6.0 9.9----30.10- 73.4 78.3----
2024-04-15 03:36 pmENE 7.0 12.0----30.10- 73.6 78.3----
2024-04-15 03:30 pmENE 7.0 8.0----30.11- 73.4 78.3----
2024-04-15 03:24 pm E 6.0 11.1----30.11- 73.6 78.1----
2024-04-15 03:18 pmENE 8.0 8.9----30.11- 73.4 78.1----
2024-04-15 03:12 pmENE 6.0 11.1----30.11- 73.0 78.1----
2024-04-15 03:06 pm E 8.9 11.1----30.11- 73.0 78.1----
2024-04-15 03:00 pmENE 7.0 9.9----30.11-0.04 73.4 78.1----
2024-04-15 02:54 pmENE 8.0 13.0----30.11- 73.2 78.1----
2024-04-15 02:48 pmENE 9.9 12.0----30.11- 73.2 78.1----
2024-04-15 02:42 pmENE 8.9 11.1----30.11- 73.0 77.9----
2024-04-15 02:36 pmENE 8.9 12.0----30.11- 73.2 77.9----
2024-04-15 02:30 pmENE 7.0 9.9----30.11- 73.4 77.9----
2024-04-15 02:24 pm E 8.9 9.9----30.11- 73.2 77.9----
2024-04-15 02:18 pm E 8.0 11.1----30.11- 73.4 77.9----
2024-04-15 02:12 pm E 8.0 8.9----30.12- 73.6 77.9----
2024-04-15 02:06 pmENE 8.9 13.0----30.12- 72.9 77.9----
2024-04-15 02:00 pm E 8.0 9.9----30.12-0.02 73.6 77.9----
2024-04-15 01:54 pmENE 7.0 9.9----30.12- 73.0 77.9----
2024-04-15 01:48 pm E 7.0 9.9----30.12- 73.8 77.9----
2024-04-15 01:42 pm E 7.0 9.9----30.12- 73.4 77.9----
2024-04-15 01:36 pm E 8.0 12.0----30.13- 73.8 77.7----
2024-04-15 01:30 pm E 8.9 9.9----30.12- 73.4 77.7----
2024-04-15 01:24 pm E 8.0 11.1----30.12- 73.4 77.7----
2024-04-15 01:18 pm E 8.9 11.1----30.13- 73.8 77.7----
2024-04-15 01:12 pm E 7.0 8.9----30.13- 73.8 77.5----
2024-04-15 01:06 pm E 7.0 8.9----30.13- 73.9 77.7----
2024-04-15 01:00 pm E 4.1 7.0----30.14+0.00 73.9 77.7----
2024-04-15 12:54 pmESE 6.0 8.0----30.14- 74.1 77.7----
2024-04-15 12:48 pm E 7.0 11.1----30.14- 73.2 77.5----
2024-04-15 12:42 pm E 4.1 8.9----30.14- 74.5 77.5----
2024-04-15 12:36 pm E 6.0 8.9----30.14- 74.5 77.5----
2024-04-15 12:30 pmESE 5.1 7.0----30.14- 74.1 77.5----
2024-04-15 12:24 pm E 7.0 8.9----30.14- 74.1 77.5----
2024-04-15 12:18 pm E 7.0 8.9----30.14- 74.5 77.5----
2024-04-15 12:12 pmESE 6.0 11.1----30.14- 74.1 77.5----
2024-04-15 12:06 pm E 9.9 12.0----30.14- 73.8 77.5----
2024-04-15 12:00 pm E 8.0 8.9----30.14+0.02 73.9 77.4----
2024-04-15 11:54 am E 7.0 9.9----30.14- 73.9 77.4----
2024-04-15 11:48 am E 7.0 9.9----30.14- 73.9 77.2----
2024-04-15 11:42 amESE 7.0 8.9----30.14- 73.9 77.2----
2024-04-15 11:36 am E 6.0 9.9----30.14- 73.8 77.2----
2024-04-15 11:30 am E 6.0 9.9----30.14- 73.9 77.2----
2024-04-15 11:24 am E 8.0 9.9----30.14- 73.9 77.2----
2024-04-15 11:18 am E 7.0 9.9----30.14- 73.9 77.4----
2024-04-15 11:12 am E 8.0 9.9----30.14- 73.8 77.2----
2024-04-15 11:06 amESE 6.0 8.9----30.14- 74.1 77.4----
2024-04-15 11:00 amESE 8.0 9.9----30.14+0.03 73.8 77.2----
2024-04-15 10:54 amESE 8.0 8.9----30.14- 73.9 77.2----
2024-04-15 10:48 am E 8.0 9.9----30.14- 73.8 77.2----
2024-04-15 10:42 am E 6.0 9.9----30.14- 73.8 77.2----
2024-04-15 10:36 am E 9.9 11.1----30.14- 73.6 77.2----
2024-04-15 10:30 am E 9.9 11.1----30.14-- 77.0----
2024-04-15 10:24 am E 8.0 9.9----30.14-- 77.0----
2024-04-15 10:18 amENE 7.0 9.9----30.14- 73.0 77.0----
2024-04-15 10:12 am E 7.0 8.9----30.14- 73.0 77.0----
2024-04-15 10:06 am E 6.0 11.1----30.14- 73.6 77.0----
2024-04-15 10:00 am E 8.0 8.9----30.14+0.04 73.2 76.8----
2024-04-15 09:54 am E 7.0 9.9----30.14- 73.6 76.8----